Tucson, AZ

6:57 PM MST on November 13, 2019 (GMT -0700)
Tucson International

Weather History for KTUS - August, 2019

Change the Weather History Date:

Saturday, August 24, 2019

  Actual Average Record
Temperature  
Mean Temperature 84 °F 85 °F  
Max Temperature 95 °F 98 °F 108 °F (1985)
Min Temperature 73 °F 73 °F 60 °F (1900)
Degree Days  
Heating Degree Days 0 0  
Month to date heating degree days 0 0  
Since 1 June heating degree days 0 0  
Since 1 July heating degree days 0 0  
Cooling Degree Days 19 20  
Month to date cooling degree days 591 486  
Year to date cooling degree days 2368 2265  
Since 1 June cooling degree days 1996 1763  
Growing Degree Days 34 (Base 50)    
Moisture  
Dew Point 60 °F    
Average Humidity 44    
Maximum Humidity 60    
Minimum Humidity 28    
Precipitation  
Precipitation 0.00 in 0.07 in 1.21 in (2010)
Month to date precipitation 1.15 1.92  
Year to date precipitation 7.25 7.44  
Sea Level Pressure  
Sea Level Pressure 29.91 in    
Wind  
Wind Speed 6 mph (SW)    
Max Wind Speed 15 mph    
Max Gust Speed 22 mph    
Visibility 10 miles    
Events      
T = Trace of Precipitation, MM = Missing Value Source: NWS Daily Summary

Daily Weather History Graph

Daily Weather History Graph

Search for Another Location

Airport or City:

Astronomy

Aug. 24, 2019 Rise Set
Actual Time 5:53 AM MST 6:57 PM MST
Civil Twilight 5:28 AM MST 7:23 PM MST
Nautical Twilight 4:58 AM MST 7:53 PM MST
Astronomical Twilight 4:27 AM MST 8:23 PM MST
Moon No Moon Rise 2:07 PM MST (8/24)
Length of Visible Light 13h 54m
Length of Day
13h 03m
Last Quarter, 38% of the Moon is Illuminated
Aug 24
Last Quarter
Aug 30
New
Sep 5
First Quarter
Sep 13
Full
Sep 21
Last Quarter

Hourly Weather History & Observations

Time (MST) Temp. Heat Index Dew Point Humidity Pressure Visibility Wind Dir Wind Speed Gust Speed Precip Events Conditions
12:53 AM 78.1 °F - 57.9 °F 50% 29.86 in 10.0 mi SE 3.5 mph - N/A   Clear
1:53 AM 75.9 °F - 59.0 °F 56% 29.86 in 10.0 mi South 8.1 mph - N/A   Clear
2:53 AM 75.9 °F - 60.1 °F 58% 29.86 in 10.0 mi SSE 8.1 mph - N/A   Clear
3:53 AM 75.9 °F - 60.1 °F 58% 29.89 in 10.0 mi SSW 3.5 mph - N/A   Overcast
4:53 AM 75.0 °F - 60.1 °F 60% 29.90 in 10.0 mi WSW 3.5 mph - N/A   Partly Cloudy
5:53 AM 75.0 °F - 60.1 °F 60% 29.93 in 10.0 mi Calm Calm - N/A   Clear
6:53 AM 75.0 °F - 60.1 °F 60% 29.95 in 10.0 mi Calm Calm - N/A   Clear
7:53 AM 78.1 °F - 60.1 °F 54% 29.96 in 10.0 mi SSE 4.6 mph - N/A   Clear
8:53 AM 81.0 °F 81.6 °F 60.1 °F 49% 29.97 in 10.0 mi Calm Calm - N/A   Clear
9:53 AM 82.9 °F 83.2 °F 60.1 °F 46% 29.97 in 10.0 mi North - - N/A   Clear
10:53 AM 87.1 °F 86.5 °F 59.0 °F 39% 29.96 in 10.0 mi Calm Calm - N/A   Clear
11:53 AM 88.0 °F 87.6 °F 60.1 °F 39% 29.94 in 10.0 mi WSW 6.9 mph - N/A   Clear
12:53 PM 90.0 °F 89.7 °F 60.1 °F 37% 29.92 in 10.0 mi West 10.4 mph - N/A   Clear
1:53 PM 91.0 °F 90.5 °F 60.1 °F 35% 29.90 in 10.0 mi WSW 8.1 mph - N/A   Clear
2:53 PM 93.0 °F 92.3 °F 59.0 °F 32% 29.87 in 10.0 mi North - - N/A   Partly Cloudy
3:53 PM 93.0 °F 92.0 °F 57.9 °F 31% 29.85 in 10.0 mi SW 5.8 mph - N/A   Clear
4:53 PM 93.0 °F 91.7 °F 57.0 °F 30% 29.85 in 10.0 mi Variable 6.9 mph - N/A   Clear
5:53 PM 93.9 °F 92.2 °F 55.9 °F 28% 29.85 in 10.0 mi WNW 10.4 mph 18.4 mph N/A   Clear
6:53 PM 91.9 °F 90.3 °F 55.9 °F 30% 29.85 in 10.0 mi West 10.4 mph - N/A   Clear
7:53 PM 91.9 °F 90.3 °F 55.9 °F 30% 29.88 in 10.0 mi WNW 5.8 mph - N/A   Partly Cloudy
8:53 PM 89.1 °F 89.0 °F 61.0 °F 39% 29.90 in 10.0 mi SW 9.2 mph - N/A   Overcast
9:53 PM 84.9 °F 85.9 °F 63.0 °F 48% 29.91 in 10.0 mi South 11.5 mph - N/A   Clear
10:53 PM 82.9 °F 84.0 °F 63.0 °F 51% 29.92 in 10.0 mi South 8.1 mph - N/A   Clear
11:53 PM 82.0 °F 83.1 °F 63.0 °F 52% 29.92 in 10.0 mi SSE 4.6 mph - N/A   Clear